START_TIME,STEP,MOV.,AL01,t_acc.,AL02,t_acc.,E37,t_acc.,H21,t_acc.
1981-08-25 00:00:35.310 ,1,0,0.,24.0,0.,24.0,0.,24.0,0.,24.0
1981-08-25 00:00:59.310 ,0,1,0.,24.0,0.,24.0,0.,24.0,0.,24.0
1981-08-25 00:01:23.310 ,0,0,1.,24.0,0.,24.0,0.,24.0,0.,24.0
1981-08-25 00:01:47.310 ,0,1,0.,24.0,1.,24.0,0.,24.0,0.,24.0
1981-08-25 00:02:11.310 ,0,0,0.,24.0,0.,24.0,0.,24.0,0.,24.0
1981-08-25 00:02:35.310 ,1,1,0.,24.0,0.,24.0,0.,24.0,0.,24.0
1981-08-25 00:02:59.310 ,1,0,0.,24.0,0.,24.0,0.,24.0,0.,24.0
1981-08-25 00:03:23.310 ,2,1,0.,24.0,0.,24.0,0.,24.0,0.,24.0
1981-08-25 00:03:47.310 ,2,0,0.,24.0,0.,24.0,0.,24.0,0.,24.0
1981-08-25 00:04:11.310 ,3,1,0.,24.0,0.,24.0,0.,24.0,0.,24.0
1981-08-25 00:04:35.310 ,3,0,0.,24.0,0.,24.0,0.,24.0,0.,24.0
1981-08-25 00:04:59.310 ,4,1,0.,24.0,0.,24.0,0.,24.0,0.,24.0
1981-08-25 00:05:23.310 ,4,0,0.,24.0,0.,24.0,0.,24.0,0.,24.0
1981-08-25 00:05:47.310 ,5,1,0.,24.0,1.,24.0,0.,24.0,0.,24.0
1981-08-25 00:06:11.310 ,5,0,0.,24.0,0.,24.0,0.,24.0,0.,24.0
1981-08-25 00:06:35.310 ,6,1,0.,24.0,0.,24.0,0.,24.0,0.,24.0
1981-08-25 00:06:59.310 ,6,0,1.,24.0,0.,24.0,0.,24.0,0.,24.0
1981-08-25 00:07:23.310 ,7,1,4.,24.0,0.,24.0,0.,24.0,0.,24.0
1981-08-25 00:07:47.310 ,7,0,32.,24.0,0.,24.0,0.,24.0,0.,24.0
1981-08-25 00:08:11.310 ,7,1,32.,24.0,0.,24.0,0.,24.0,0.,24.0
1981-08-25 00:08:35.310 ,7,0,19.,24.0,0.,24.0,0.,24.0,0.,24.0
1981-08-25 00:08:59.310 ,6,1,23.,24.0,0.,24.0,0.,24.0,0.,24.0
1981-08-25 00:09:23.310 ,6,0,0.,24.0,0.,24.0,0.,24.0,0.,24.0
1981-08-25 00:09:47.310 ,5,1,0.,24.0,0.,24.0,0.,24.0,0.,24.0
1981-08-25 00:10:11.310 ,0,0,0.,24.0,0.,24.0,0.,24.0,0.,24.0
1981-08-25 00:11:11.310 ,0,0,,0,,0,,0,,0
1981-08-25 00:11:23.310 ,3,1,0.,24.0,0.,24.0,0.,24.0,0.,24.0
1981-08-25 00:11:47.310 ,3,0,0.,24.0,0.,24.0,0.,24.0,0.,24.0
1981-08-25 00:12:11.310 ,2,1,0.,24.0,0.,24.0,0.,24.0,0.,24.0
1981-08-25 00:12:35.310 ,2,0,0.,24.0,0.,24.0,0.,24.0,0.,24.0
1981-08-25 00:12:59.310 ,1,1,0.,24.0,0.,24.0,0.,24.0,0.,24.0
1981-08-25 00:13:23.310 ,1,0,0.,24.0,0.,24.0,0.,24.0,0.,24.0
1981-08-25 00:13:47.310 ,0,0,0.,24.0,0.,24.0,0.,24.0,0.,24.0
1981-08-25 00:14:11.310 ,0,0,0.,24.0,0.,24.0,0.,24.0,0.,24.0
1981-08-25 00:14:35.310 ,0,1,0.,24.0,0.,24.0,0.,24.0,0.,24.0
1981-08-25 00:14:59.310 ,0,0,0.,24.0,0.,24.0,0.,24.0,0.,24.0
1981-08-25 00:15:23.310 ,1,1,0.,24.0,0.,24.0,0.,24.0,0.,24.0
1981-08-25 00:15:47.310 ,1,0,0.,24.0,0.,24.0,0.,24.0,0.,24.0
1981-08-25 00:16:11.310 ,2,1,0.,24.0,0.,24.0,0.,24.0,0.,24.0
1981-08-25 00:16:35.310 ,2,0,0.,24.0,0.,24.0,0.,24.0,0.,24.0
1981-08-25 00:16:59.310 ,3,1,0.,24.0,0.,24.0,0.,24.0,0.,24.0
1981-08-25 00:17:23.310 ,3,0,0.,24.0,0.,24.0,0.,24.0,0.,24.0
1981-08-25 00:17:47.310 ,4,1,0.,24.0,0.,24.0,0.,24.0,0.,24.0
1981-08-25 00:18:11.310 ,4,0,1.,24.0,0.,24.0,0.,24.0,0.,24.0
1981-08-25 00:18:35.310 ,5,1,0.,24.0,0.,24.0,0.,24.0,0.,24.0
1981-08-25 00:18:59.310 ,5,0,0.,24.0,0.,24.0,0.,24.0,0.,24.0
1981-08-25 00:19:23.310 ,6,1,0.,24.0,0.,24.0,0.,24.0,0.,24.0
1981-08-25 00:19:47.310 ,6,0,0.,24.0,0.,24.0,0.,24.0,0.,24.0
1981-08-25 00:20:11.310 ,7,1,6.,24.0,0.,24.0,0.,24.0,0.,24.0
1981-08-25 00:20:35.310 ,7,0,32.,24.0,0.,24.0,0.,24.0,0.,24.0
1981-08-25 00:20:59.310 ,7,1,32.,24.0,0.,24.0,0.,24.0,0.,24.0
1981-08-25 00:21:23.310 ,7,0,25.,24.0,0.,24.0,0.,24.0,0.,24.0
1981-08-25 00:21:47.310 ,6,1,31.,24.0,0.,24.0,0.,24.0,0.,24.0
1981-08-25 00:22:11.310 ,6,0,0.,24.0,0.,24.0,0.,24.0,0.,24.0
1981-08-25 00:22:35.310 ,5,1,0.,24.0,0.,24.0,0.,24.0,0.,24.0
1981-08-25 00:22:59.310 ,5,0,0.,24.0,0.,24.0,0.,24.0,0.,24.0
1981-08-25 00:23:23.310 ,4,1,0.,24.0,0.,24.0,0.,24.0,0.,24.0
1981-08-25 00:23:47.310 ,4,0,0.,24.0,0.,24.0,0.,24.0,0.,24.0
1981-08-25 00:24:11.310 ,3,1,0.,24.0,0.,24.0,0.,24.0,0.,24.0
1981-08-25 00:24:35.310 ,3,0,0.,24.0,0.,24.0,0.,24.0,0.,24.0
1981-08-25 00:24:59.310 ,2,1,0.,24.0,0.,24.0,0.,24.0,0.,24.0
1981-08-25 00:25:23.310 ,2,0,0.,24.0,0.,24.0,0.,24.0,0.,24.0
1981-08-25 00:25:47.310 ,1,1,0.,24.0,0.,24.0,0.,24.0,0.,24.0
1981-08-25 00:26:11.310 ,1,0,0.,24.0,0.,24.0,0.,24.0,0.,24.0
1981-08-25 00:26:35.310 ,0,1,0.,24.0,0.,24.0,0.,24.0,0.,24.0
1981-08-25 00:26:59.310 ,0,0,0.,24.0,0.,24.0,0.,24.0,0.,24.0
1981-08-25 00:27:23.310 ,0,1,0.,24.0,0.,24.0,0.,24.0,0.,24.0
1981-08-25 00:27:47.310 ,0,0,0.,24.0,0.,24.0,0.,24.0,0.,24.0
1981-08-25 00:28:11.310 ,1,1,0.,24.0,0.,24.0,0.,24.0,0.,24.0
1981-08-25 00:28:35.310 ,1,0,0.,24.0,0.,24.0,0.,24.0,0.,24.0
1981-08-25 00:28:59.310 ,2,1,0.,24.0,0.,24.0,0.,24.0,0.,24.0
1981-08-25 00:29:23.310 ,2,0,0.,24.0,0.,24.0,0.,24.0,0.,24.0
1981-08-25 00:29:47.310 ,3,1,0.,24.0,0.,24.0,0.,24.0,0.,24.0
1981-08-25 00:30:11.310 ,3,0,0.,24.0,0.,24.0,0.,24.0,0.,24.0
1981-08-25 00:30:35.310 ,4,1,0.,24.0,0.,24.0,0.,24.0,0.,24.0
1981-08-25 00:30:59.310 ,4,0,0.,24.0,0.,24.0,0.,24.0,0.,24.0
1981-08-25 00:31:23.310 ,5,1,0.,24.0,0.,24.0,0.,24.0,0.,24.0
1981-08-25 00:31:47.310 ,5,0,0.,24.0,0.,24.0,0.,24.0,0.,24.0
1981-08-25 00:32:11.310 ,6,1,0.,24.0,0.,24.0,0.,24.0,0.,24.0
1981-08-25 00:32:35.310 ,0,0,,0,,0,,0,,0
1981-08-25 00:32:46.110 ,0,0,,0,,0,,0,,0
1981-08-25 00:32:46.710 ,0,0,0.,24.0,0.,24.0,0.,24.0,0.,24.0
1981-08-25 00:32:59.310 ,7,1,7.,24.0,0.,24.0,0.,24.0,0.,24.0
1981-08-25 00:33:23.310 ,7,0,31.,24.0,0.,24.0,0.,24.0,0.,24.0
1981-08-25 00:33:47.310 ,7,1,33.,24.0,1.,24.0,0.,24.0,0.,24.0
1981-08-25 00:34:11.310 ,7,0,36.,24.0,0.,24.0,0.,24.0,0.,24.0
1981-08-25 00:34:35.310 ,6,1,17.,24.0,0.,24.0,0.,24.0,0.,24.0
1981-08-25 00:34:59.310 ,6,0,0.,24.0,0.,24.0,0.,24.0,0.,24.0
1981-08-25 00:35:23.310 ,5,1,0.,24.0,0.,24.0,0.,24.0,0.,24.0
1981-08-25 00:35:47.310 ,5,0,0.,24.0,0.,24.0,0.,24.0,0.,24.0
1981-08-25 00:36:11.310 ,4,1,0.,24.0,0.,24.0,0.,24.0,0.,24.0
1981-08-25 00:36:35.310 ,4,0,0.,24.0,0.,24.0,0.,24.0,0.,24.0
1981-08-25 00:36:59.310 ,3,1,1.,24.0,0.,24.0,0.,24.0,0.,24.0
1981-08-25 00:37:23.310 ,3,0,0.,24.0,1.,24.0,0.,24.0,0.,24.0
1981-08-25 00:37:47.310 ,2,1,0.,24.0,0.,24.0,0.,24.0,0.,24.0
1981-08-25 00:38:11.310 ,2,0,0.,24.0,0.,24.0,0.,24.0,0.,24.0
1981-08-25 00:38:35.310 ,1,1,1.,24.0,0.,24.0,0.,24.0,0.,24.0
1981-08-25 00:38:59.310 ,1,0,0.,24.0,0.,24.0,0.,24.0,0.,24.0
1981-08-25 00:39:23.310 ,0,1,0.,24.0,0.,24.0,0.,24.0,0.,24.0
1981-08-25 00:39:47.310 ,0,0,0.,24.0,0.,24.0,0.,24.0,0.,24.0
1981-08-25 00:40:11.310 ,0,1,0.,24.0,0.,24.0,0.,24.0,0.,24.0
1981-08-25 00:40:35.310 ,0,0,0.,24.0,0.,24.0,0.,24.0,0.,24.0
1981-08-25 00:40:59.310 ,1,1,0.,24.0,0.,24.0,0.,24.0,0.,24.0
1981-08-25 00:41:23.310 ,1,0,0.,24.0,0.,24.0,0.,24.0,0.,24.0
1981-08-25 00:41:47.310 ,2,1,0.,24.0,0.,24.0,0.,24.0,0.,24.0
1981-08-25 00:42:11.310 ,2,0,0.,24.0,0.,24.0,0.,24.0,0.,24.0
1981-08-25 00:42:35.310 ,3,1,0.,24.0,0.,24.0,0.,24.0,0.,24.0
1981-08-25 00:42:59.310 ,3,0,0.,24.0,0.,24.0,0.,24.0,0.,24.0
1981-08-25 00:43:23.310 ,4,1,0.,24.0,0.,24.0,0.,24.0,0.,24.0
1981-08-25 00:43:47.310 ,4,0,0.,24.0,0.,24.0,0.,24.0,0.,24.0
1981-08-25 00:44:11.310 ,5,1,0.,24.0,0.,24.0,0.,24.0,0.,24.0
1981-08-25 00:44:35.310 ,5,0,0.,24.0,0.,24.0,0.,24.0,0.,24.0
1981-08-25 00:44:59.310 ,6,1,0.,24.0,0.,24.0,0.,24.0,0.,24.0
1981-08-25 00:45:23.310 ,6,0,0.,24.0,1.,24.0,0.,24.0,0.,24.0
1981-08-25 00:45:47.310 ,7,1,7.,24.0,0.,24.0,0.,24.0,0.,24.0
1981-08-25 00:46:11.310 ,7,0,33.,24.0,0.,24.0,0.,24.0,0.,24.0
1981-08-25 00:46:35.310 ,7,1,25.,24.0,0.,24.0,0.,24.0,0.,24.0
1981-08-25 00:46:59.310 ,7,0,38.,24.0,0.,24.0,0.,24.0,0.,24.0
1981-08-25 00:47:23.310 ,6,1,23.,24.0,0.,24.0,0.,24.0,0.,24.0
1981-08-25 00:47:47.310 ,6,0,0.,24.0,0.,24.0,0.,24.0,0.,24.0
1981-08-25 00:48:11.310 ,5,1,0.,24.0,0.,24.0,0.,24.0,0.,24.0
1981-08-25 00:48:35.310 ,5,0,0.,24.0,0.,24.0,0.,24.0,0.,24.0
1981-08-25 00:48:59.310 ,4,1,0.,24.0,0.,24.0,0.,24.0,0.,24.0
1981-08-25 00:49:23.310 ,4,0,0.,24.0,0.,24.0,0.,24.0,0.,24.0
1981-08-25 00:49:47.310 ,3,1,0.,24.0,0.,24.0,0.,24.0,0.,24.0
1981-08-25 00:50:11.310 ,3,0,0.,24.0,0.,24.0,0.,24.0,0.,24.0
1981-08-25 00:50:35.310 ,2,1,0.,24.0,0.,24.0,0.,24.0,0.,24.0
1981-08-25 00:50:59.310 ,2,0,0.,24.0,0.,24.0,0.,24.0,0.,24.0
1981-08-25 00:51:23.310 ,1,1,0.,24.0,0.,24.0,0.,24.0,0.,24.0
1981-08-25 00:51:47.310 ,1,0,0.,24.0,0.,24.0,0.,24.0,0.,24.0
1981-08-25 00:52:11.310 ,0,1,0.,24.0,0.,24.0,0.,24.0,0.,24.0
1981-08-25 00:52:35.310 ,0,0,0.,24.0,0.,24.0,0.,24.0,0.,24.0
1981-08-25 00:52:59.310 ,0,1,0.,24.0,0.,24.0,0.,24.0,0.,24.0
1981-08-25 00:53:23.310 ,0,0,0.,24.0,0.,24.0,0.,24.0,0.,24.0
1981-08-25 00:53:47.310 ,1,1,0.,24.0,0.,24.0,0.,24.0,0.,24.0
1981-08-25 00:54:11.310 ,1,0,0.,24.0,0.,24.0,0.,24.0,0.,24.0
1981-08-25 00:54:35.310 ,2,1,0.,24.0,0.,24.0,0.,24.0,0.,24.0
1981-08-25 00:54:59.310 ,2,0,0.,24.0,0.,24.0,0.,24.0,0.,24.0
1981-08-25 00:55:23.310 ,3,1,0.,24.0,0.,24.0,0.,24.0,0.,24.0
1981-08-25 00:55:47.310 ,3,0,0.,24.0,0.,24.0,0.,24.0,0.,24.0
1981-08-25 00:56:11.310 ,4,1,0.,24.0,0.,24.0,0.,24.0,0.,24.0
1981-08-25 00:56:35.310 ,4,0,0.,24.0,0.,24.0,0.,24.0,0.,24.0
1981-08-25 00:56:59.310 ,5,1,0.,24.0,0.,24.0,0.,24.0,0.,24.0
1981-08-25 00:57:23.310 ,5,0,0.,24.0,0.,24.0,0.,24.0,0.,24.0
1981-08-25 00:57:47.310 ,6,1,0.,24.0,0.,24.0,0.,24.0,0.,24.0
1981-08-25 00:58:11.310 ,6,0,0.,24.0,0.,24.0,0.,24.0,0.,24.0
1981-08-25 00:58:35.310 ,7,1,12.,24.0,0.,24.0,0.,24.0,0.,24.0
1981-08-25 00:58:59.310 ,7,0,38.,24.0,0.,24.0,0.,24.0,0.,24.0
1981-08-25 00:59:23.310 ,7,1,26.,24.0,0.,24.0,0.,24.0,0.,24.0
1981-08-25 00:59:47.310 ,7,0,27.,24.0,0.,24.0,0.,24.0,0.,24.0
1981-08-25 01:00:11.310 ,6,1,33.,24.0,0.,24.0,0.,24.0,0.,24.0
1981-08-25 01:00:35.310 ,6,0,0.,24.0,1.,24.0,0.,24.0,0.,24.0
1981-08-25 01:00:59.310 ,5,1,0.,24.0,0.,24.0,0.,24.0,0.,24.0
1981-08-25 01:01:23.310 ,5,0,0.,24.0,0.,24.0,0.,24.0,0.,24.0
1981-08-25 01:01:47.310 ,4,1,0.,24.0,0.,24.0,0.,24.0,0.,24.0
1981-08-25 01:02:11.310 ,4,0,0.,24.0,0.,24.0,0.,24.0,0.,24.0
1981-08-25 01:02:35.310 ,3,1,0.,24.0,0.,24.0,0.,24.0,0.,24.0
1981-08-25 01:02:59.310 ,3,0,1.,24.0,0.,24.0,0.,24.0,0.,24.0
1981-08-25 01:03:23.310 ,2,1,0.,24.0,0.,24.0,0.,24.0,0.,24.0
1981-08-25 01:03:47.310 ,2,0,0.,24.0,0.,24.0,0.,24.0,0.,24.0
1981-08-25 01:04:11.310 ,1,1,0.,24.0,0.,24.0,0.,24.0,0.,24.0
1981-08-25 01:04:35.310 ,1,0,0.,24.0,0.,24.0,0.,24.0,0.,24.0
1981-08-25 01:04:59.310 ,0,1,0.,24.0,0.,24.0,0.,24.0,0.,24.0
1981-08-25 01:05:23.310 ,0,0,0.,24.0,0.,24.0,0.,24.0,0.,24.0
1981-08-25 01:05:47.310 ,0,1,0.,24.0,0.,24.0,0.,24.0,0.,24.0
1981-08-25 01:06:11.310 ,0,0,0.,24.0,0.,24.0,0.,24.0,0.,24.0
1981-08-25 01:06:35.310 ,1,1,0.,24.0,0.,24.0,0.,24.0,0.,24.0
1981-08-25 01:06:59.310 ,1,0,0.,24.0,0.,24.0,0.,24.0,0.,24.0
1981-08-25 01:07:23.310 ,2,1,0.,24.0,0.,24.0,0.,24.0,0.,24.0
1981-08-25 01:07:47.310 ,2,0,0.,24.0,0.,24.0,0.,24.0,0.,24.0
1981-08-25 01:08:11.310 ,3,1,0.,24.0,1.,24.0,0.,24.0,0.,24.0
1981-08-25 01:08:35.310 ,3,0,0.,24.0,0.,24.0,0.,24.0,0.,24.0
1981-08-25 01:08:59.310 ,4,1,0.,24.0,0.,24.0,0.,24.0,0.,24.0
1981-08-25 01:09:23.310 ,4,0,0.,24.0,0.,24.0,0.,24.0,0.,24.0
1981-08-25 01:09:47.310 ,5,1,0.,24.0,0.,24.0,0.,24.0,0.,24.0
1981-08-25 01:10:11.310 ,5,0,0.,24.0,0.,24.0,0.,24.0,0.,24.0
1981-08-25 01:10:35.310 ,6,1,0.,24.0,0.,24.0,0.,24.0,0.,24.0
1981-08-25 01:10:59.310 ,6,0,0.,24.0,0.,24.0,0.,24.0,0.,24.0
1981-08-25 01:11:23.310 ,7,1,8.,24.0,0.,24.0,0.,24.0,0.,24.0
1981-08-25 01:11:47.310 ,7,0,21.,24.0,0.,24.0,0.,24.0,0.,24.0
1981-08-25 01:12:11.310 ,7,1,44.,24.0,0.,24.0,0.,24.0,0.,24.0
1981-08-25 01:12:35.310 ,7,0,27.,24.0,0.,24.0,0.,24.0,0.,24.0
1981-08-25 01:12:59.310 ,6,1,14.,24.0,0.,24.0,0.,24.0,0.,24.0
1981-08-25 01:13:23.310 ,6,0,0.,24.0,0.,24.0,0.,24.0,0.,24.0
1981-08-25 01:13:47.310 ,5,1,0.,24.0,0.,24.0,0.,24.0,0.,24.0
1981-08-25 01:14:11.310 ,5,0,0.,24.0,0.,24.0,0.,24.0,0.,24.0
1981-08-25 01:14:35.310 ,4,1,0.,24.0,0.,24.0,0.,24.0,0.,24.0
1981-08-25 01:14:59.310 ,4,0,1.,24.0,0.,24.0,0.,24.0,0.,24.0
1981-08-25 01:15:23.310 ,3,1,0.,24.0,0.,24.0,0.,24.0,0.,24.0
1981-08-25 01:15:47.310 ,3,0,0.,24.0,0.,24.0,0.,24.0,0.,24.0
1981-08-25 01:16:11.310 ,2,1,0.,24.0,0.,24.0,0.,24.0,0.,24.0
1981-08-25 01:16:35.310 ,2,0,0.,24.0,0.,24.0,0.,24.0,0.,24.0
1981-08-25 01:16:59.310 ,1,1,0.,24.0,0.,24.0,0.,24.0,0.,24.0
1981-08-25 01:17:23.310 ,1,0,0.,24.0,0.,24.0,0.,24.0,0.,24.0
1981-08-25 01:17:47.310 ,0,1,0.,24.0,0.,24.0,0.,24.0,0.,24.0
1981-08-25 01:18:11.310 ,0,0,0.,24.0,0.,24.0,0.,24.0,0.,24.0
1981-08-25 01:18:35.310 ,0,1,0.,24.0,0.,24.0,0.,24.0,0.,24.0
1981-08-25 01:18:59.310 ,0,0,0.,24.0,0.,24.0,0.,24.0,0.,24.0
1981-08-25 01:19:23.310 ,1,1,0.,24.0,0.,24.0,0.,24.0,0.,24.0
1981-08-25 01:19:47.310 ,1,0,0.,24.0,0.,24.0,0.,24.0,0.,24.0
1981-08-25 01:20:11.310 ,2,1,0.,24.0,0.,24.0,0.,24.0,0.,24.0
1981-08-25 01:20:35.310 ,2,0,0.,24.0,0.,24.0,0.,24.0,0.,24.0
1981-08-25 01:20:59.310 ,3,1,0.,24.0,0.,24.0,0.,24.0,0.,24.0
1981-08-25 01:21:23.310 ,3,0,0.,24.0,1.,24.0,0.,24.0,0.,24.0
1981-08-25 01:21:47.310 ,4,1,0.,24.0,0.,24.0,0.,24.0,0.,24.0
1981-08-25 01:22:11.310 ,4,0,0.,24.0,0.,24.0,0.,24.0,0.,24.0
1981-08-25 01:22:35.310 ,5,1,0.,24.0,0.,24.0,0.,24.0,0.,24.0
1981-08-25 01:22:59.310 ,5,0,0.,24.0,0.,24.0,0.,24.0,0.,24.0
1981-08-25 01:23:23.310 ,6,1,0.,24.0,0.,24.0,0.,24.0,0.,24.0
1981-08-25 01:23:47.310 ,6,0,0.,24.0,0.,24.0,0.,24.0,0.,24.0
1981-08-25 01:24:11.310 ,7,1,8.,24.0,0.,24.0,0.,24.0,0.,24.0
1981-08-25 01:24:35.310 ,7,0,33.,24.0,0.,24.0,0.,24.0,0.,24.0
1981-08-25 01:24:59.310 ,7,1,34.,24.0,0.,24.0,0.,24.0,0.,24.0
1981-08-25 01:25:23.310 ,7,0,38.,24.0,0.,24.0,0.,24.0,0.,24.0
1981-08-25 01:25:47.310 ,6,1,36.,24.0,0.,24.0,0.,24.0,0.,24.0
1981-08-25 01:26:11.310 ,6,0,0.,24.0,0.,24.0,0.,24.0,0.,24.0
1981-08-25 01:26:35.310 ,5,1,0.,24.0,0.,24.0,0.,24.0,0.,24.0
1981-08-25 01:26:59.310 ,5,0,0.,24.0,0.,24.0,0.,24.0,0.,24.0
1981-08-25 01:27:23.310 ,4,1,0.,24.0,0.,24.0,0.,24.0,0.,24.0
1981-08-25 01:27:47.310 ,4,0,0.,24.0,0.,24.0,0.,24.0,0.,24.0
1981-08-25 01:28:11.310 ,3,1,0.,24.0,0.,24.0,0.,24.0,0.,24.0
1981-08-25 01:28:35.310 ,3,0,1.,24.0,0.,24.0,0.,24.0,0.,24.0
1981-08-25 01:28:59.310 ,2,1,0.,24.0,0.,24.0,0.,24.0,0.,24.0
1981-08-25 01:29:23.310 ,2,0,0.,24.0,0.,24.0,0.,24.0,0.,24.0
1981-08-25 01:29:47.310 ,1,1,0.,24.0,0.,24.0,0.,24.0,0.,24.0
1981-08-25 01:30:11.310 ,1,0,0.,24.0,0.,24.0,0.,24.0,0.,24.0
1981-08-25 01:30:35.310 ,0,1,0.,24.0,0.,24.0,0.,24.0,0.,24.0
1981-08-25 01:30:59.310 ,0,0,0.,24.0,0.,24.0,0.,24.0,0.,24.0
1981-08-25 01:31:23.310 ,0,1,0.,24.0,0.,24.0,0.,24.0,0.,24.0
1981-08-25 01:31:47.310 ,0,0,0.,24.0,0.,24.0,0.,24.0,0.,24.0
1981-08-25 01:32:11.310 ,1,1,0.,24.0,0.,24.0,0.,24.0,0.,24.0
1981-08-25 01:32:35.310 ,1,0,0.,24.0,0.,24.0,0.,24.0,0.,24.0
1981-08-25 01:32:59.310 ,2,1,0.,24.0,0.,24.0,0.,24.0,0.,24.0
1981-08-25 01:33:23.310 ,2,0,0.,24.0,0.,24.0,0.,24.0,0.,24.0
1981-08-25 01:33:47.310 ,3,1,0.,24.0,0.,24.0,0.,24.0,0.,24.0
1981-08-25 01:34:11.300 ,3,0,0.,24.0,0.,24.0,0.,24.0,0.,24.0
1981-08-25 01:34:35.300 ,4,1,0.,24.0,0.,24.0,0.,24.0,0.,24.0
1981-08-25 01:34:59.300 ,4,0,0.,24.0,0.,24.0,0.,24.0,0.,24.0
1981-08-25 01:35:23.300 ,5,1,0.,24.0,0.,24.0,0.,24.0,0.,24.0
1981-08-25 01:35:47.300 ,5,0,0.,24.0,0.,24.0,0.,24.0,0.,24.0
1981-08-25 01:36:11.300 ,6,1,0.,24.0,0.,24.0,0.,24.0,0.,24.0
1981-08-25 01:36:35.300 ,6,0,0.,24.0,0.,24.0,0.,24.0,0.,24.0
1981-08-25 01:36:59.300 ,7,1,5.,24.0,0.,24.0,0.,24.0,0.,24.0
1981-08-25 01:37:23.300 ,7,0,39.,24.0,0.,24.0,0.,24.0,0.,24.0
1981-08-25 01:37:47.300 ,7,1,29.,24.0,0.,24.0,0.,24.0,0.,24.0
1981-08-25 01:38:11.300 ,0,0,31.,24.0,0.,24.0,0.,24.0,0.,24.0
1981-08-25 01:38:43.710 ,0,0,20.,24.0,0.,24.0,0.,24.0,0.,24.0
1981-08-25 01:38:59.300 ,0,0,0.,24.0,0.,24.0,0.,24.0,0.,24.0
1981-08-25 01:39:23.300 ,5,1,0.,24.0,0.,24.0,0.,24.0,0.,24.0
1981-08-25 01:39:47.300 ,5,0,0.,24.0,0.,24.0,0.,24.0,0.,24.0
1981-08-25 01:40:11.300 ,4,1,0.,24.0,0.,24.0,0.,24.0,0.,24.0
1981-08-25 01:40:35.300 ,4,0,0.,24.0,0.,24.0,0.,24.0,0.,24.0
1981-08-25 01:40:59.300 ,3,1,0.,24.0,0.,24.0,0.,24.0,0.,24.0
1981-08-25 01:41:23.300 ,3,0,0.,24.0,0.,24.0,0.,24.0,0.,24.0
1981-08-25 01:41:47.300 ,2,1,0.,24.0,0.,24.0,0.,24.0,0.,24.0
1981-08-25 01:42:11.300 ,2,0,0.,24.0,0.,24.0,0.,24.0,0.,24.0
1981-08-25 01:42:35.300 ,1,1,0.,24.0,0.,24.0,0.,24.0,0.,24.0
1981-08-25 01:42:59.300 ,1,0,0.,24.0,0.,24.0,0.,24.0,0.,24.0
1981-08-25 01:43:23.300 ,0,1,0.,24.0,0.,24.0,0.,24.0,0.,24.0
1981-08-25 01:43:47.300 ,0,0,0.,24.0,1.,24.0,0.,24.0,0.,24.0
1981-08-25 01:44:11.300 ,0,1,0.,24.0,0.,24.0,0.,24.0,0.,24.0
1981-08-25 01:44:35.300 ,0,0,0.,24.0,0.,24.0,0.,24.0,0.,24.0
1981-08-25 01:44:59.300 ,1,1,0.,24.0,0.,24.0,0.,24.0,0.,24.0
1981-08-25 01:45:23.300 ,1,0,0.,24.0,0.,24.0,0.,24.0,0.,24.0
1981-08-25 01:45:47.300 ,2,1,0.,24.0,0.,24.0,0.,24.0,0.,24.0
1981-08-25 01:46:11.300 ,2,0,0.,24.0,0.,24.0,0.,24.0,0.,24.0
1981-08-25 01:46:35.300 ,3,1,0.,24.0,0.,24.0,0.,24.0,0.,24.0
1981-08-25 01:46:59.300 ,3,0,0.,24.0,0.,24.0,0.,24.0,0.,24.0
1981-08-25 01:47:23.300 ,4,1,0.,24.0,0.,24.0,0.,24.0,0.,24.0
1981-08-25 01:47:47.300 ,4,0,0.,24.0,0.,24.0,0.,24.0,0.,24.0
1981-08-25 01:48:11.300 ,5,1,1.,24.0,0.,24.0,0.,24.0,0.,24.0
1981-08-25 01:48:35.300 ,5,0,0.,24.0,0.,24.0,0.,24.0,0.,24.0
1981-08-25 01:48:59.300 ,6,1,0.,24.0,0.,24.0,0.,24.0,0.,24.0
1981-08-25 01:49:23.300 ,6,0,0.,24.0,0.,24.0,0.,24.0,0.,24.0
1981-08-25 01:49:47.300 ,7,1,7.,24.0,0.,24.0,0.,24.0,0.,24.0
1981-08-25 01:50:11.300 ,7,0,31.,24.0,1.,24.0,0.,24.0,0.,24.0
1981-08-25 01:50:35.300 ,7,1,35.,24.0,0.,24.0,0.,24.0,0.,24.0
1981-08-25 01:50:59.300 ,7,0,38.,24.0,0.,24.0,0.,24.0,0.,24.0
1981-08-25 01:51:23.300 ,6,1,26.,24.0,0.,24.0,0.,24.0,0.,24.0
1981-08-25 01:51:47.300 ,6,0,0.,24.0,0.,24.0,0.,24.0,0.,24.0
1981-08-25 01:52:11.300 ,5,1,0.,24.0,0.,24.0,0.,24.0,0.,24.0
1981-08-25 01:52:35.300 ,5,0,1.,24.0,0.,24.0,0.,24.0,0.,24.0
1981-08-25 01:52:59.300 ,4,1,0.,24.0,0.,24.0,0.,24.0,0.,24.0
1981-08-25 01:53:23.300 ,4,0,0.,24.0,0.,24.0,0.,24.0,0.,24.0
1981-08-25 01:53:47.300 ,3,1,0.,24.0,0.,24.0,0.,24.0,0.,24.0
1981-08-25 01:54:11.300 ,3,0,0.,24.0,0.,24.0,0.,24.0,0.,24.0
1981-08-25 01:54:35.300 ,2,1,0.,24.0,0.,24.0,0.,24.0,0.,24.0
1981-08-25 01:54:59.300 ,2,0,0.,24.0,0.,24.0,0.,24.0,0.,24.0
1981-08-25 01:55:23.300 ,1,1,0.,24.0,0.,24.0,0.,24.0,0.,24.0
1981-08-25 01:55:47.300 ,1,0,0.,24.0,0.,24.0,0.,24.0,0.,24.0
1981-08-25 01:56:11.300 ,0,1,0.,24.0,0.,24.0,0.,24.0,0.,24.0
1981-08-25 01:56:35.300 ,0,0,1.,24.0,0.,24.0,0.,24.0,0.,24.0
1981-08-25 01:56:59.300 ,0,1,0.,24.0,0.,24.0,0.,24.0,0.,24.0
1981-08-25 01:57:23.300 ,0,0,0.,24.0,0.,24.0,0.,24.0,0.,24.0
1981-08-25 01:57:47.300 ,1,1,0.,24.0,0.,24.0,0.,24.0,0.,24.0
1981-08-25 01:58:11.300 ,1,0,0.,24.0,0.,24.0,0.,24.0,0.,24.0
1981-08-25 01:58:35.300 ,2,1,0.,24.0,0.,24.0,0.,24.0,0.,24.0
1981-08-25 01:58:59.300 ,2,0,0.,24.0,0.,24.0,0.,24.0,0.,24.0
1981-08-25 01:59:23.300 ,3,1,0.,24.0,0.,24.0,0.,24.0,0.,24.0
1981-08-25 01:59:47.300 ,3,0,0.,24.0,0.,24.0,0.,24.0,0.,24.0
1981-08-25 02:00:11.300 ,4,1,0.,24.0,0.,24.0,0.,24.0,0.,24.0
1981-08-25 02:00:35.300 ,4,0,0.,24.0,0.,24.0,0.,24.0,0.,24.0
1981-08-25 02:00:59.300 ,5,1,0.,24.0,0.,24.0,0.,24.0,0.,24.0
1981-08-25 02:01:23.300 ,5,0,0.,24.0,0.,24.0,0.,24.0,0.,24.0
1981-08-25 02:01:47.300 ,6,1,0.,24.0,0.,24.0,0.,24.0,0.,24.0
1981-08-25 02:02:11.300 ,6,0,0.,24.0,0.,24.0,0.,24.0,0.,24.0
1981-08-25 02:02:35.300 ,7,1,6.,24.0,0.,24.0,0.,24.0,0.,24.0
1981-08-25 02:02:59.300 ,7,0,21.,24.0,0.,24.0,0.,24.0,0.,24.0
1981-08-25 02:03:23.300 ,7,1,27.,24.0,0.,24.0,0.,24.0,0.,24.0
1981-08-25 02:03:47.300 ,7,0,39.,24.0,0.,24.0,0.,24.0,0.,24.0
1981-08-25 02:04:11.300 ,6,1,24.,24.0,0.,24.0,0.,24.0,0.,24.0
1981-08-25 02:04:35.300 ,6,0,0.,24.0,0.,24.0,0.,24.0,0.,24.0
1981-08-25 02:04:59.300 ,5,1,0.,24.0,1.,24.0,0.,24.0,0.,24.0
1981-08-25 02:05:23.300 ,5,0,0.,24.0,0.,24.0,0.,24.0,0.,24.0
1981-08-25 02:05:47.300 ,4,1,0.,24.0,0.,24.0,0.,24.0,0.,24.0
1981-08-25 02:06:11.300 ,4,0,0.,24.0,0.,24.0,0.,24.0,0.,24.0
1981-08-25 02:06:35.300 ,3,1,0.,24.0,0.,24.0,0.,24.0,0.,24.0
1981-08-25 02:06:59.300 ,3,0,0.,24.0,0.,24.0,0.,24.0,0.,24.0
1981-08-25 02:07:23.300 ,2,1,0.,24.0,0.,24.0,0.,24.0,0.,24.0
1981-08-25 02:07:47.300 ,2,0,0.,24.0,0.,24.0,0.,24.0,0.,24.0
1981-08-25 02:08:11.300 ,1,1,0.,24.0,0.,24.0,0.,24.0,0.,24.0
1981-08-25 02:08:35.300 ,1,0,0.,24.0,0.,24.0,0.,24.0,0.,24.0
1981-08-25 02:08:59.300 ,0,1,0.,24.0,0.,24.0,0.,24.0,0.,24.0
1981-08-25 02:09:23.300 ,0,0,0.,24.0,0.,24.0,0.,24.0,0.,24.0
1981-08-25 02:09:47.300 ,0,1,0.,24.0,1.,24.0,0.,24.0,0.,24.0
1981-08-25 02:10:11.300 ,0,0,0.,24.0,0.,24.0,0.,24.0,0.,24.0
1981-08-25 02:10:35.300 ,1,1,0.,24.0,0.,24.0,0.,24.0,0.,24.0
1981-08-25 02:10:59.300 ,1,0,0.,24.0,0.,24.0,0.,24.0,0.,24.0
1981-08-25 02:11:23.300 ,2,1,0.,24.0,0.,24.0,0.,24.0,0.,24.0
1981-08-25 02:11:47.300 ,2,0,0.,24.0,0.,24.0,0.,24.0,0.,24.0
1981-08-25 02:12:11.300 ,3,1,0.,24.0,0.,24.0,0.,24.0,0.,24.0
1981-08-25 02:12:35.300 ,3,0,0.,24.0,0.,24.0,0.,24.0,0.,24.0
1981-08-25 02:12:59.300 ,4,1,1.,24.0,0.,24.0,0.,24.0,0.,24.0
1981-08-25 02:13:23.300 ,4,0,0.,24.0,0.,24.0,0.,24.0,0.,24.0
1981-08-25 02:13:47.300 ,5,1,0.,24.0,0.,24.0,0.,24.0,0.,24.0
1981-08-25 02:14:11.300 ,5,0,0.,24.0,0.,24.0,0.,24.0,0.,24.0
1981-08-25 02:14:35.300 ,6,1,0.,24.0,0.,24.0,0.,24.0,0.,24.0
1981-08-25 02:14:59.300 ,6,0,0.,24.0,0.,24.0,0.,24.0,0.,24.0
1981-08-25 02:15:23.300 ,7,1,4.,24.0,0.,24.0,0.,24.0,0.,24.0
1981-08-25 02:15:47.300 ,0,0,31.,24.0,0.,24.0,0.,24.0,0.,24.0
1981-08-25 02:16:11.900 ,7,1,25.,24.0,0.,24.0,0.,24.0,0.,24.0
1981-08-25 02:16:35.300 ,7,0,31.,24.0,0.,24.0,0.,24.0,0.,24.0
1981-08-25 02:16:59.300 ,6,1,11.,24.0,0.,24.0,0.,24.0,0.,24.0
1981-08-25 02:17:23.300 ,6,0,0.,24.0,0.,24.0,0.,24.0,0.,24.0
1981-08-25 02:17:47.300 ,5,1,0.,24.0,0.,24.0,0.,24.0,0.,24.0
1981-08-25 02:18:11.300 ,5,0,0.,24.0,0.,24.0,0.,24.0,0.,24.0
1981-08-25 02:18:35.300 ,4,1,0.,24.0,0.,24.0,0.,24.0,0.,24.0
1981-08-25 02:18:59.300 ,4,0,0.,24.0,0.,24.0,0.,24.0,0.,24.0
1981-08-25 02:19:23.300 ,3,1,0.,24.0,0.,24.0,0.,24.0,0.,24.0
1981-08-25 02:19:47.300 ,3,0,0.,24.0,0.,24.0,0.,24.0,0.,24.0
1981-08-25 02:20:11.300 ,2,1,0.,24.0,0.,24.0,0.,24.0,0.,24.0
1981-08-25 02:20:35.300 ,2,0,0.,24.0,0.,24.0,0.,24.0,0.,24.0
1981-08-25 02:20:59.300 ,1,1,0.,24.0,0.,24.0,0.,24.0,0.,24.0
1981-08-25 02:21:23.300 ,1,0,0.,24.0,0.,24.0,0.,24.0,0.,24.0
1981-08-25 02:21:47.300 ,0,1,0.,24.0,0.,24.0,0.,24.0,0.,24.0
1981-08-25 02:22:11.300 ,0,0,0.,24.0,0.,24.0,0.,24.0,0.,24.0
1981-08-25 02:22:35.300 ,0,1,0.,24.0,1.,24.0,0.,24.0,0.,24.0
1981-08-25 02:22:59.300 ,0,0,0.,24.0,0.,24.0,0.,24.0,0.,24.0
1981-08-25 02:23:23.300 ,1,1,0.,24.0,0.,24.0,0.,24.0,0.,24.0
1981-08-25 02:23:47.300 ,1,0,0.,24.0,0.,24.0,0.,24.0,0.,24.0
1981-08-25 02:24:11.300 ,2,1,0.,24.0,0.,24.0,0.,24.0,0.,24.0
1981-08-25 02:24:35.300 ,2,0,0.,24.0,0.,24.0,0.,24.0,0.,24.0
1981-08-25 02:24:59.300 ,3,1,0.,24.0,0.,24.0,0.,24.0,0.,24.0
1981-08-25 02:25:23.300 ,3,0,0.,24.0,0.,24.0,0.,24.0,0.,24.0
1981-08-25 02:25:47.300 ,4,1,0.,24.0,0.,24.0,0.,24.0,0.,24.0
1981-08-25 02:26:11.300 ,4,0,0.,24.0,0.,24.0,0.,24.0,0.,24.0
1981-08-25 02:26:35.300 ,5,1,0.,24.0,0.,24.0,0.,24.0,0.,24.0
1981-08-25 02:26:59.300 ,5,0,0.,24.0,0.,24.0,0.,24.0,0.,24.0
1981-08-25 02:27:23.300 ,6,1,0.,24.0,0.,24.0,0.,24.0,0.,24.0
1981-08-25 02:27:47.300 ,6,0,0.,24.0,0.,24.0,0.,24.0,0.,24.0
1981-08-25 02:28:11.300 ,7,1,5.,24.0,0.,24.0,0.,24.0,0.,24.0
1981-08-25 02:28:35.300 ,7,0,29.,24.0,0.,24.0,0.,24.0,0.,24.0
1981-08-25 02:28:59.300 ,7,1,41.,24.0,0.,24.0,0.,24.0,0.,24.0
1981-08-25 02:29:23.300 ,7,0,20.,24.0,0.,24.0,0.,24.0,0.,24.0
1981-08-25 02:29:47.300 ,6,1,25.,24.0,0.,24.0,0.,24.0,0.,24.0
1981-08-25 02:30:11.300 ,6,0,0.,24.0,0.,24.0,0.,24.0,0.,24.0
1981-08-25 02:30:35.300 ,5,1,0.,24.0,2.,24.0,0.,24.0,0.,24.0
1981-08-25 02:30:59.300 ,5,0,0.,24.0,0.,24.0,0.,24.0,0.,24.0
1981-08-25 02:31:23.300 ,4,1,0.,24.0,0.,24.0,0.,24.0,0.,24.0
1981-08-25 02:31:47.300 ,4,0,0.,24.0,0.,24.0,0.,24.0,0.,24.0
1981-08-25 02:32:11.300 ,3,1,0.,24.0,0.,24.0,0.,24.0,0.,24.0
1981-08-25 02:32:35.300 ,3,0,1.,24.0,0.,24.0,0.,24.0,0.,24.0
1981-08-25 02:32:59.300 ,2,1,0.,24.0,0.,24.0,0.,24.0,0.,24.0
1981-08-25 02:33:23.300 ,2,0,0.,24.0,0.,24.0,0.,24.0,0.,24.0
1981-08-25 02:33:47.300 ,1,1,0.,24.0,0.,24.0,0.,24.0,0.,24.0
1981-08-25 02:34:11.300 ,1,0,0.,24.0,0.,24.0,0.,24.0,0.,24.0